Lexington Weather

Lexington, Massachusetts, USA

48°F
12/8/2022 3:22pm 
  • Lexington Conditions: Clear
  • Temperature: 47.7°F / 8.7°CColder 1.6°F than last hour.
  • Dew Point: 35.2°FDecreased 0.4°Fsince last hour.
  • Relative Humidity: 62%Increased 3.0% since last hour.
  • Wind: Wind from NW NW 3 mph, 10-min avg: 2 mph, gust: 8 mph
  • Barometer: 30.09 inRising 0.03  inHg/hr Rising Slowly
  • Visibility: 10 miles
  • Rain Today: 0.00 in
  •   

Warning: Undefined variable $rc in /homepages/6/d276339138/htdocs/weather/20190804/ssi/nwsProduct.php on line 323

Warning: Undefined variable $rc in /homepages/6/d276339138/htdocs/weather/20190804/ssi/nwsProduct.php on line 325

Warning: Undefined variable $rc in /homepages/6/d276339138/htdocs/weather/20190804/ssi/nwsProduct.php on line 323

Warning: Undefined variable $rc in /homepages/6/d276339138/htdocs/weather/20190804/ssi/nwsProduct.php on line 325

Warning: Undefined variable $rc in /homepages/6/d276339138/htdocs/weather/20190804/ssi/nwsProduct.php on line 323

Warning: Undefined variable $rc in /homepages/6/d276339138/htdocs/weather/20190804/ssi/nwsProduct.php on line 325

Warning: Undefined variable $rc in /homepages/6/d276339138/htdocs/weather/20190804/ssi/nwsProduct.php on line 323

Warning: Undefined variable $rc in /homepages/6/d276339138/htdocs/weather/20190804/ssi/nwsProduct.php on line 325

Warning: Undefined variable $rc in /homepages/6/d276339138/htdocs/weather/20190804/ssi/nwsProduct.php on line 323

Warning: Undefined variable $rc in /homepages/6/d276339138/htdocs/weather/20190804/ssi/nwsProduct.php on line 325

Warning: Undefined variable $rc in /homepages/6/d276339138/htdocs/weather/20190804/ssi/nwsProduct.php on line 323

Warning: Undefined variable $rc in /homepages/6/d276339138/htdocs/weather/20190804/ssi/nwsProduct.php on line 325

Warning: Undefined variable $rc in /homepages/6/d276339138/htdocs/weather/20190804/ssi/nwsProduct.php on line 323

Warning: Undefined variable $rc in /homepages/6/d276339138/htdocs/weather/20190804/ssi/nwsProduct.php on line 325

Regional Weather Roundup
for Boston, MA

        
000
ASUS41 KBOX 030210
RWRBOX

REGIONAL WEATHER ROUNDUP
NATIONAL WEATHER SERVICE BOSTON/NORTON MA
900 PM EST FRI DEC 02 2022

NOTE:  "FAIR" INDICATES FEW OR NO CLOUDS BELOW 12,000 FEET WITH NO 
SIGNIFICANT WEATHER AND/OR OBSTRUCTIONS TO VISIBILITY.

MAZALL-030300-
EASTERN MASSACHUSETTS
  
CITY           SKY/WX    TMP DP  RH WIND       PRES   REMARKS
BOSTON         CLOUDY    40  29  64 S7        30.47F                  
BEVERLY        CLEAR     37  27  67 CALM      30.46F                  
LAWRENCE       CLEAR     39  25  57 S5        30.47F                  
BEDFORD        CLEAR     40  26  57 S5        30.45F                  
NORWOOD        CLEAR     37  28  70 CALM      30.47F                  
MARSHFIELD       N/A     36  30  80 S3        30.48F                  
PLYMOUTH       MOCLDY    36  30  79 CALM      30.48F                  
TAUNTON          N/A    N/A N/A N/A MISG      30.48F                  
NEW BEDFORD    MOCLDY    38  34  85 CALM      30.48F                  
$$

MAZALL-030300-
CAPE COD AND THE ISLANDS
  
CITY           SKY/WX    TMP DP  RH WIND       PRES   REMARKS
FALMOUTH       CLEAR     39  34  81 S6        30.50S                  
HYANNIS        CLOUDY    45  38  76 S7        30.48F                  
CHATHAM        CLOUDY    47  38  71 S6        30.51F                  
PROVINCETOWN   CLEAR     44  37  76 S10       30.50F                  
NANTUCKET      CLOUDY    50  41  71 SW10      30.51F                  
MARTHAS VNYRD  PTCLDY    49  38  65 SW10      30.49F                  
$$
 
MAZALL-030300-
CENTRAL AND WESTERN MASSACHUSETTS
  
CITY           SKY/WX    TMP DP  RH WIND       PRES   REMARKS
WORCESTER      CLOUDY    37  26  64 SW6       30.42F                  
FITCHBURG      CLEAR     38  23  55 S6        30.45F                  
ORANGE         CLEAR     38  28  67 S10       30.42F WCI  31          
SPRINGFIELD    MOCLDY    37  28  69 S7        30.41F WCI  31          
WESTFIELD      CLEAR     37  28  70 S7        30.43F WCI  32          
NORTH ADAMS    PTCLDY    37  25  61 CALM      30.37F                  
PITTSFIELD     PTCLDY    35  23  61 S9        30.35F WCI  28          
$$
 
RIZALL-030300-
RHODE ISLAND
  
CITY           SKY/WX    TMP DP  RH WIND       PRES   REMARKS
PROVIDENCE     CLOUDY    39  31  72 SW5       30.47F                  
NEWPORT        CLOUDY    45  36  70 SW6       30.47F                  
BLOCK ISLAND   CLEAR     44  35  70 SW13      30.49F                  
SMITHFIELD     CLOUDY    38  31  76 VRB5      30.45F                  
WESTERLY       CLEAR     44  35  70 SW7       30.47F                  
$$
 
CTZALL-030300-
CONNECTICUT
  
CITY           SKY/WX    TMP DP  RH WIND       PRES   REMARKS
BRADLEY INTL   MOCLDY    39  29  67 S8        30.44F                  
HARTFORD       CLEAR     39  31  72 S5        30.46F                  
BRIDGEPORT     PTCLDY    43  33  68 S10       30.46F                  
DANBURY        CLOUDY    39  26  59 SE6       30.45S                  
GROTON         CLEAR     45  36  70 SW13      30.46F                  
NEW HAVEN      PTCLDY    45  34  65 S7        30.46F                  
CHESTER        FAIR      37  34  87 CALM      30.45F                  
MERIDEN        CLEAR     34  28  79 CALM      30.46F                  
WILLIMANTIC    CLEAR     37  31  78 S3        30.46F                  
OXFORD         CLOUDY    36  27  69 S5        30.44F                  
$$

MEZ002-015-021-024-NHZ003-005-008-011-012-014-VTZ005-008-030300-
NORTHERN NEW ENGLAND
  
CITY           SKY/WX    TMP DP  RH WIND       PRES   REMARKS
PORTLAND ME    PTCLDY    31  26  82 CALM      30.47F                  
BANGOR ME      MOCLDY    30  22  72 SE6       30.47F WCI  24          
CONCORD NH     CLEAR     28  22  78 E12       30.43F WCI  18          
MANCHESTER NH  MOCLDY    39  25  57 SE6       30.43F                  
NASHUA NH      MOCLDY    37  25  61 CALM      30.45F                  
PORTSMOUTH NH  PTCLDY    36  26  67 S5        30.46S                  
JAFFREY NH     CLOUDY    37  24  59 S6        30.40F                  
KEENE NH       CLEAR     34  27  75 S3          N/A                   
BURLINGTON VT  CLOUDY    41  23  48 S20G28    30.26F WCI  32          
MT. WASHINGTON MOCLDY    25   0  33 SW35        N/A  WCI   7          
$$

NYZ052-076-030300-
EASTERN NEW YORK
  
CITY           SKY/WX    TMP DP  RH WIND       PRES   REMARKS
ALBANY         MOCLDY    40  22  48 SE13G23   30.33F                  
NEW YORK CITY  MOCLDY    43  27  53 S5        30.45F                  
$$
 
ANZALL-030300-
MARINE OBSERVATIONS
  
STATION/POSITION TIME  TEMP    WIND        PRES    VSBY  WAVE
                       AIR SEA DIR/SP/G                  HT/PER
                 (UTC) (F)     (DEG/KT/KT) (MB)    (MI)  (FT/S)
BOSTON BUOY      0150      51  200/ 10/ 12 1032.6F         2/11
BUZZARDS BAY     0100   48     210/ 18/ 20 1032.9F
NANTUCKET SOUND  0150   49     200/ 14/ 16 1032.7F
MASS BAY-STELLWA 0004   44 50  200/ 16/ 17 1032.0R  1 7/8  3/ 4
ISLE OF SHOALS   0100   43     200/ 18/ 21 1031.2F
S OF BLOCK IS    0156      56                N/A           3/ 4
$$

......................KEY.........................
  SKY/WX - SKY CONDITION/PRESENT WEATHER
  TMP    - TEMPERATURE IN FAHRENHEIT
  DWPT   - DEWPOINT IN FAHRENHEIT
  RH     - RELATIVE HUMIDITY IN PERCENT
  WIND   - DIRECTION AND SPEED IN MPH
  PRES   - MEAN SEA LEVEL PRESSURE IN INCHES OF HG
  WCI    - WIND CHILL INDEX
  VSB    - VISIBILITY IN MILES
  HX     - HEAT INDEX
  TC     - TEMPERATURE IN CELSIUS
  VRB    - VARIABLE WIND DIRECTION
  N/A    - NOT AVAILABLE
  
      

Other recent Regional Weather Roundups

Thu Dec 8, 3:10pm

Thu Dec 8, 2:10pm

Thu Dec 8, 1:10pm

Thu Dec 8, 12:10pm

Thu Dec 8, 11:10am

Thu Dec 8, 10:10am

Thu Dec 8, 9:10am

Thu Dec 8, 8:10am

Thu Dec 8, 7:10am

Thu Dec 8, 6:10am

Thu Dec 8, 5:10am

Thu Dec 8, 4:10am

Thu Dec 8, 3:10am

Thu Dec 8, 2:10am

Thu Dec 8, 1:10am

Thu Dec 8, 12:10am

Wed Dec 7, 11:10pm

Wed Dec 7, 10:10pm

Wed Dec 7, 9:10pm

Wed Dec 7, 8:10pm

Wed Dec 7, 7:10pm

Wed Dec 7, 6:10pm

Wed Dec 7, 5:10pm

Wed Dec 7, 4:10pm

Wed Dec 7, 3:10pm

Wed Dec 7, 2:10pm

Wed Dec 7, 1:10pm

Wed Dec 7, 12:10pm

Wed Dec 7, 11:10am

Wed Dec 7, 10:10am

Wed Dec 7, 9:10am

Wed Dec 7, 8:10am

Wed Dec 7, 7:10am

Wed Dec 7, 6:10am

Wed Dec 7, 5:10am

Wed Dec 7, 4:10am

Wed Dec 7, 3:10am

Wed Dec 7, 2:10am

Wed Dec 7, 1:10am

Wed Dec 7, 12:10am

Tue Dec 6, 11:10pm

Tue Dec 6, 10:10pm

Tue Dec 6, 9:10pm

Tue Dec 6, 8:10pm

Tue Dec 6, 7:10pm

Tue Dec 6, 6:10pm

Tue Dec 6, 5:10pm

Tue Dec 6, 4:10pm

Tue Dec 6, 3:10pm

Tue Dec 6, 2:10pm

Tue Dec 6, 1:10pm

Tue Dec 6, 12:10pm

Tue Dec 6, 11:10am

Tue Dec 6, 10:10am

Tue Dec 6, 9:10am

Tue Dec 6, 8:10am

Tue Dec 6, 7:10am

Tue Dec 6, 6:10am

Tue Dec 6, 5:10am

Tue Dec 6, 4:10am

Tue Dec 6, 3:10am

Tue Dec 6, 2:10am

Tue Dec 6, 1:10am

Tue Dec 6, 12:10am

Mon Dec 5, 11:10pm

Mon Dec 5, 10:10pm

Mon Dec 5, 9:10pm

Mon Dec 5, 8:10pm

Mon Dec 5, 7:10pm

Mon Dec 5, 6:10pm

Mon Dec 5, 5:10pm

Mon Dec 5, 4:10pm

Mon Dec 5, 3:10pm

Mon Dec 5, 2:10pm

Mon Dec 5, 1:10pm

Mon Dec 5, 12:10pm

Mon Dec 5, 11:10am

Mon Dec 5, 10:10am

Mon Dec 5, 9:10am

Mon Dec 5, 8:10am

Mon Dec 5, 7:10am

Mon Dec 5, 6:10am

Mon Dec 5, 5:10am

Mon Dec 5, 4:10am

Mon Dec 5, 3:10am

Mon Dec 5, 2:10am

Mon Dec 5, 1:10am

Mon Dec 5, 12:10am

Sun Dec 4, 11:10pm

Sun Dec 4, 10:10pm

Sun Dec 4, 9:10pm

Sun Dec 4, 8:10pm

Sun Dec 4, 7:10pm

Sun Dec 4, 6:10pm

Sun Dec 4, 5:10pm

Sun Dec 4, 4:10pm

Sun Dec 4, 3:10pm

Sun Dec 4, 2:10pm

Sun Dec 4, 1:10pm

Sun Dec 4, 12:10pm

Sun Dec 4, 11:10am

Sun Dec 4, 10:10am

Sun Dec 4, 9:10am

Sun Dec 4, 8:10am

Sun Dec 4, 7:10am

Sun Dec 4, 6:10am

Sun Dec 4, 5:10am

Sun Dec 4, 4:10am

Sun Dec 4, 3:10am

Sun Dec 4, 2:10am

Sun Dec 4, 1:10am

Sun Dec 4, 12:10am

Sat Dec 3, 11:10pm

Sat Dec 3, 10:10pm

Sat Dec 3, 9:10pm

Sat Dec 3, 8:10pm

Sat Dec 3, 7:10pm

Sat Dec 3, 6:10pm

Sat Dec 3, 5:10pm

Sat Dec 3, 4:10pm

Sat Dec 3, 3:10pm

Sat Dec 3, 2:10pm

Sat Dec 3, 1:10pm

Sat Dec 3, 12:10pm

Sat Dec 3, 11:10am

Sat Dec 3, 10:10am

Sat Dec 3, 9:10am

Sat Dec 3, 8:10am

Sat Dec 3, 7:10am

Sat Dec 3, 6:10am

Sat Dec 3, 5:10am

Sat Dec 3, 4:10am

Sat Dec 3, 3:10am

Sat Dec 3, 2:10am

Sat Dec 3, 1:10am

Sat Dec 3, 12:10am

Fri Dec 2, 11:10pm

Fri Dec 2, 10:10pm

Fri Dec 2, 8:10pm

Fri Dec 2, 7:10pm

Fri Dec 2, 6:10pm

Fri Dec 2, 5:10pm

Fri Dec 2, 4:10pm

Fri Dec 2, 3:10pm

Fri Dec 2, 2:10pm

Fri Dec 2, 1:10pm

Fri Dec 2, 12:10pm

Fri Dec 2, 11:10am

Fri Dec 2, 10:10am

Fri Dec 2, 9:10am

Fri Dec 2, 8:10am

Fri Dec 2, 7:10am

Fri Dec 2, 6:10am

Fri Dec 2, 5:10am

Fri Dec 2, 4:10am

Fri Dec 2, 3:10am

Fri Dec 2, 2:10am

Fri Dec 2, 1:10am

Fri Dec 2, 12:10am

Thu Dec 1, 11:10pm

Thu Dec 1, 10:10pm

Thu Dec 1, 9:10pm

Thu Dec 1, 8:10pm

Thu Dec 1, 7:10pm

Thu Dec 1, 6:10pm

Thu Dec 1, 5:10pm

Thu Dec 1, 4:10pm

Meta data:

ID: e2ff2d41-41d4-476f-a964-10cd79c3b4b0
Link: https://api.weather.gov/products/e2ff2d41-41d4-476f-a964-10cd79c3b4b0